Hourly Data Report for September 13, 2017

All times are specified in Local Standard Time (LST). Add 1 hour to adjust for Daylight Saving Time where and when it is observed.

BAS CARAQUET
NEW BRUNSWICK

47°48'08.000" N
64°50'00.000" W
5.00 m
8100467
71598
WXS

Download Data

Hourly Data (September 2017)
Hourly Data Report for September 13, 2017
Temp Definition
°C
Dew Point Temp Definition
°C
Rel Hum Definition
%
Wind Dir Definition
10's deg

Wind Spd Definition
km/h
Visibility Definition
km
Stn Press Definition
kPa
Hmdx Definition


Wind Chill Definition


Weather Definition


TIME
00:00 9.7 9.4 98 15 3   100.48     LegendNANA
01:00 8.9 8.7 98 15 5   100.48     LegendNANA
02:00 10.1 10.0 99 22 5   100.45     LegendNANA
03:00 10.2 10.1 99 25 5   100.45     LegendNANA
04:00 10.8 10.7 100 22 3   100.43     LegendNANA
05:00 12.7 12.7 100 27 7   100.43     LegendNANA
06:00 11.2 11.1 100 23 5   100.43     LegendNANA
07:00 12.7 12.7 100 26 10   100.47     LegendNANA
08:00 14.7 14.6 99 26 12   100.46     LegendNANA
09:00 17.1 14.4 84 27 14   100.48     LegendNANA
10:00 18.5 13.7 74 27 17   100.44     LegendNANA
11:00 20.5 13.5 64 26 15   100.42     LegendNANA
12:00 21.7 14.3 63 28 11   100.38 25   LegendNANA
13:00 21.4 14.0 63 27 11   100.34 25   LegendNANA
14:00 22.4 14.1 60 28 12   100.29 26   LegendNANA
15:00 22.3 13.3 57 28 9   100.24 25   LegendNANA
16:00 24.2 13.8 52 28 9   100.22 27   LegendNANA
17:00 24.6 11.1 43 26 10   100.21 26   LegendNANA
18:00 23.2 11.7 48 22 8   100.21 25   LegendNANA
19:00 20.9 11.6 55 20 8   100.24     LegendNANA
20:00 20.4 11.4 56 19 9   100.26     LegendNANA
21:00 20.2 11.3 57 20 10   100.24     LegendNANA
22:00 18.8 11.3 62 22 12   100.22     LegendNANA
23:00 18.4 11.4 64 23 10   100.24     LegendNANA

Notes on Data Quality.

Legend

  • E = Estimated
  • M = Missing
  • NA = Not Available
  • ‡ = Partner data that is not subject to review by the National Climate Archives
Date modified: